#timestamp,LO_Frequency,Hit,StdDev 
1505689215.0,286047005.6,N
1505689215.9,286047005.6,N
1505689235.7,286047003.8,N
1505689255.6,286047007.5,N
1505689275.4,286047006.2,N
1505689295.2,286047006.7,N
1505689315.1,286047005.3,N
1505689316.0,286047005.3,N
1505689335.8,286046999.4,N
1505689355.6,286046996.0,N
1505689375.5,286046995.5,N
1505689395.3,286046996.6,N
1505689415.1,286046999.0,N
1505689435.9,286046996.0,N
1505689455.7,286046995.6,N
1505689475.5,286046993.8,N
1505689495.3,286046994.5,N
1505689515.2,286046994.0,N
1505689535.0,286046994.4,N
1505689535.9,286046994.4,N
1505689555.7,286046993.8,N
1505689575.6,286046994.7,N
1505689595.4,286046992.4,N
1505689615.2,286046991.7,N
1505689635.1,286046998.3,N
1505689636.0,286046998.3,N
1505689655.8,286046998.6,N
1505689675.6,286046999.3,N
1505689695.5,286046999.4,N
1505689715.3,286047001.1,N
1505689735.1,286046997.4,N
1505689755.9,286046998.9,N
1505689775.7,286046996.5,N
1505689795.5,286047000.7,N
1505689815.4,286046998.6,N
1505689835.2,286046996.9,N
1505689855.0,286046992.0,N
1505689855.9,286046992.0,N
1505689875.8,286046991.7,Y
1505689895.6,286046996.5,P
1505689915.4,286047003.1,P
1505689935.2,286047006.4,N
1505689955.1,286047010.1,N
1505689956.0,286047010.1,N
1505689975.8,286047014.9,N
1505689995.6,286047017.4,N
1505690015.5,286047020.8,N
1505690035.3,286047020.5,N
1505690055.1,286047023.4,N
1505690075.9,286047024.6,N
1505690095.7,286047026.7,N
1505690115.5,286047026.0,N
1505690135.4,286047026.9,N
1505690155.2,286047028.8,N
1505690175.0,286047030.6,N
1505690175.9,286047030.6,N
1505690195.8,286047031.7,N
1505690215.6,286047030.4,N
1505690235.4,286047031.4,N
1505690255.3,286047034.3,Y
1505690275.1,286047017.9,P
1505690276.0,286047017.9,P
1505690295.8,286047014.7,P
1505690315.7,286047018.8,Y
1505690335.5,286046998.6,P
1505690355.3,286046997.4,N
1505690375.2,286046998.4,N
1505690395.9,286047000.2,N
1505690415.7,286047000.0,N
1505690435.6,286046999.2,N
1505690455.4,286046998.8,N
1505690475.2,286046998.5,N
1505690495.0,286047000.7,N
1505690496.0,286047000.7,N
1505690515.8,286046997.4,N
1505690535.6,286046995.8,N
1505690555.4,286046998.5,N
1505690575.3,286047000.3,N
1505690595.1,286047001.7,N
1505690615.8,286047001.1,N
1505690635.7,286047002.7,N
1505690655.5,286047000.1,N
1505690675.3,286046998.0,N
1505690695.2,286046994.0,N
1505690715.9,286046990.3,N
1505690735.7,286046989.0,N
1505690755.6,286046987.5,N
1505690775.4,286046983.7,N
1505690795.2,286046983.9,N
1505690815.0,286046984.1,N
1505690816.0,286046984.1,N
1505690835.8,286046987.8,N
1505690855.6,286046984.1,N
1505690875.4,286046982.6,N
1505690895.3,286046982.9,N
1505690915.1,286046982.3,N
1505690935.8,286046979.3,N
1505690955.7,286046979.7,N
1505690975.5,286046977.9,N
1505690995.3,286046978.3,N
1505691015.2,286046978.8,N
1505691035.9,286046974.3,Y
1505691055.7,286046985.2,P
1505691075.6,286046982.8,P
1505691095.4,286046984.7,P
1505691115.2,286046980.5,Y
1505691135.1,286046994.9,P
1505691136.0,286046994.9,N
1505691155.8,286046997.1,N
1505691175.6,286046996.0,N
1505691195.5,286046992.0,N
1505691215.3,286046990.2,N
1505691235.1,286046990.4,N
1505691255.9,286046988.7,Y
1505691275.7,286047001.7,P
1505691295.5,286047005.7,N
1505691315.4,286047004.0,N
1505691335.2,286047000.5,N
1505691355.0,286046997.0,N
1505691355.9,286046997.0,N
1505691375.8,286047001.9,N
1505691395.6,286047001.5,N
1505691415.4,286047000.1,N
1505691435.2,286047001.2,N
1505691455.1,286047000.4,N
1505691456.0,286047000.4,N
1505691475.8,286046999.0,N
1505691495.6,286046999.9,N
1505691515.5,286047002.4,N
1505691535.3,286047000.2,N
1505691555.1,286047001.8,N
1505691575.9,286047003.8,N
1505691595.7,286047002.0,N
1505691615.5,286046998.9,N
1505691635.4,286046997.2,N
1505691655.2,286046998.3,N
1505691675.0,286046998.5,N
1505691675.9,286046998.5,N
1505691695.8,286046996.6,N
1505691715.6,286046994.9,N
1505691735.4,286046991.8,N
1505691755.2,286046992.7,N
1505691775.1,286046991.9,N
1505691776.0,286046991.9,N
1505691795.8,286046992.8,N
1505691815.6,286046992.3,N
1505691835.5,286046992.1,N
1505691855.3,286046992.1,N
1505691875.1,286046993.5,N
1505691895.9,286046995.0,N
1505691915.7,286047000.0,N
1505691935.5,286047000.6,N
1505691955.4,286046997.3,N
1505691975.2,286046996.1,N
1505691995.0,286046993.9,N
1505691995.9,286046993.9,N
1505692015.8,286046996.1,N
1505692035.6,286046993.3,N
1505692055.4,286046991.1,N
1505692075.3,286046985.7,Y
1505692095.1,286046997.3,P
1505692096.0,286046997.3,P
1505692115.8,286047002.2,P
1505692135.7,286047010.4,Y
1505692155.5,286047012.8,P
1505692175.3,286047017.9,N
1505692195.2,286047022.2,N
1505692215.9,286047022.5,N
1505692235.7,286047022.9,N
1505692255.6,286047027.7,Y
1505692275.4,286047017.2,P
1505692295.2,286047016.3,P
1505692315.1,286047016.3,P
1505692316.0,286047016.3,Y
1505692335.8,286047002.2,P
1505692355.6,286047001.9,N
1505692375.5,286047003.3,N
1505692395.3,286047001.4,N
1505692415.1,286047002.7,N
1505692435.9,286047002.3,N
1505692455.7,286047004.2,N
1505692475.5,286047004.5,N
1505692495.3,286047006.6,N
1505692515.2,286047008.4,N
1505692535.0,286047010.3,N
1505692535.9,286047010.3,N
1505692555.7,286047011.1,N
1505692575.6,286047010.9,N
1505692595.4,286047013.2,N
1505692615.2,286047011.5,N
1505692635.1,286047013.3,N
1505692636.0,286047013.3,N
1505692655.8,286047020.3,Y
1505692675.6,286047012.2,P
1505692695.5,286047010.8,P
1505692715.3,286047007.0,P
1505692735.1,286047007.5,Y
1505692755.9,286046996.6,P
1505692775.7,286046999.6,N
1505692795.5,286046996.8,N
